Temperature
3 3 3 3 3 3 3 4 5 6 5 6 5 4 4 3 2 2 2 1 1 1 1 2 2 2 2 2 2 1 1 1 2 2 2 2 2 2 2 2 1 1 1 1
2 2 2 2 3 3 3 3 3 4 4 5 4 3 3 3 2 2 1 1 1 1 1 1 1 1 1 1 1 1 1 1 1 1 1 1 1 1 1 1 1 1 1 1
3 2 2 3 3 3 3 3 3 4 5 4 3 3 2 2 2 1 1 1 1 1 1 1 1 1 1 1 1 1 1 1 1 1 1 0 0 1 0 0 0 0 0 0
2 2 3 5 2 2 3 2 2 3 3 3 2 2 2 2 1 1 1 1 1 1 1 1 0 0 0 0 0 0 0 0 0 0 0 0 0 0 0 -0 -0 -0 -0 -1
2 3 4 4 2 1 2 3 2 2 2 2 1 1 2 2 1 1 1 1 1 1 1 0 0 -0 -0 -0 -0 -0 -0 -0 -0 -0 -0 -0 -0 -0 -0 -0 -1 -1 -1 -1
1 3 4 5 2 1 2 3 3 1 1 1 1 3 3 1 1 0 0 0 0 0 0 -0 -0 -0 -1 -0 -0 -1 -1 -1 -0 -1 -1 -1 -1 -1 -1 -1 -1 -1 -1 -1
1 2 4 3 1 1 3 4 2 1 1 1 1 2 1 1 0 -0 -0 -0 0 0 -0 -0 -1 -1 -1 -1 -1 -1 -1 -1 -1 -1 -1 -1 -1 -1 -1 -1 -2 -2 -2 -2
1 2 3 1 0 2 3 2 1 1 1 0 0 0 0 -0 -0 -1 -1 -0 -0 -0 -1 -1 -1 -1 -1 -1 -1 -1 -1 -1 -1 -1 -2 -1 -1 -1 -2 -2 -2 -2 -2 -2
2 3 2 1 1 1 1 1 1 0 0 0 -0 -0 -0 -1 -1 -1 -1 -1 -1 -1 -1 -1 -1 -1 -1 -1 -1 -1 -1 -2 -2 -2 -2 -2 -2 -2 -2 -2 -3 -3 -3 -3
-0 1 1 0 0 1 1 1 1 0 0 -0 -0 -1 -1 -1 -1 -1 -1 -1 -2 -2 -2 -2 -2 -2 -2 -2 -2 -2 -2 -2 -2 -2 -2 -2 -2 -2 -2 -3 -3 -3 -3 -3
-1 1 -0 0 1 1 1 0 0 0 -0 -0 -1 -1 -1 -2 -2 -2 -2 -2 -2 -2 -2 -2 -2 -2 -2 -2 -2 -2 -2 -2 -2 -2 -3 -3 -3 -3 -3 -3 -3 -3 -3 -3
2 1 1 1 1 0 0 -0 -0 -1 -1 -1 -1 -2 -2 -2 -2 -2 -2 -2 -2 -2 -2 -2 -2 -2 -2 -2 -3 -3 -3 -3 -3 -3 -3 -3 -3 -3 -3 -3 -3 -3 -3 -4
0 0 -0 0 0 -0 -1 -1 -1 -1 -1 -1 -2 -2 -2 -2 -2 -2 -2 -2 -2 -2 -2 -3 -2 -2 -3 -3 -3 -3 -3 -3 -3 -3 -3 -4 -4 -4 -4 -3 -4 -4 -4 -4
-0 -1 -1 -1 -1 -1 -1 -1 -1 -1 -2 -2 -2 -2 -2 -2 -2 -2 -2 -3 -3 -3 -3 -3 -3 -3 -3 -3 -3 -3 -3 -3 -4 -4 -4 -4 -4 -4 -4 -4 -4 -4 -4 -4
-1 -1 -1 -1 -1 -1 -1 -2 -2 -2 -2 -2 -2 -2 -2 -3 -3 -3 -3 -3 -3 -3 -3 -3 -3 -3 -3 -3 -3 -3 -4 -4 -4 -4 -4 -4 -4 -5 -5 -5 -5 -5 -4 -4
-1 -1 -2 -2 -2 -2 -2 -2 -2 -2 -2 -2 -2 -3 -3 -3 -3 -3 -3 -3 -3 -3 -3 -3 -3 -4 -4 -4 -4 -4 -4 -4 -4 -4 -4 -5 -5 -5 -5 -5 -5 -5 -5 -5
-2 -2 -2 -2 -2 -2 -2 -2 -2 -2 -2 -2 -3 -3 -3 -3 -3 -3 -3 -3 -4 -4 -4 -4 -4 -4 -4 -4 -4 -4 -4 -4 -5 -5 -5 -5 -5 -5 -6 -6 -6 -6 -6 -6
-2 -2 -2 -2 -2 -2 -2 -2 -2 -2 -2 -2 -3 -3 -3 -3 -3 -3 -3 -3 -4 -4 -4 -4 -4 -4 -4 -4 -4 -5 -5 -5 -5 -5 -5 -5 -5 -5 -6 -6 -6 -6 -6 -6
-2 -2 -2 -2 -2 -2 -2 -2 -2 -2 -2 -3 -3 -3 -3 -3 -3 -3 -3 -4 -4 -4 -4 -4 -4 -4 -5 -5 -5 -5 -5 -5 -5 -5 -6 -6 -6 -6 -6 -6 -6 -6 -6 -6
-2 -2 -2 -2 -2 -2 -2 -2 -3 -3 -3 -3 -3 -3 -3 -3 -3 -4 -4 -4 -4 -4 -4 -4 -4 -5 -5 -5 -5 -5 -5 -5 -6 -6 -6 -6 -6 -6 -6 -6 -6 -6 -6 -7
-2 -2 -2 -2 -2 -2 -3 -3 -3 -3 -3 -3 -3 -3 -3 -3 -4 -4 -4 -4 -4 -4 -4 -5 -5 -5 -5 -5 -5 -6 -6 -6 -6 -6 -6 -6 -6 -6 -6 -7 -7 -7 -7 -7
-2 -2 -2 -3 -3 -3 -3 -3 -3 -3 -3 -3 -3 -4 -4 -4 -4 -4 -4 -5 -5 -5 -5 -5 -5 -5 -6 -6 -6 -6 -6 -6 -6 -6 -7 -7 -7 -7 -7 -7 -7 -7 -7 -7
-3 -3 -3 -3 -3 -3 -3 -3 -4 -4 -4 -4 -4 -4 -4 -4 -5 -5 -5 -5 -5 -5 -5 -6 -6 -6 -6 -6 -6 -6 -6 -6 -7 -7 -7 -7 -7 -7 -7 -7 -7 -7 -7 -7
-3 -3 -3 -3 -4 -4 -4 -4 -4 -4 -4 -4 -5 -5 -5 -5 -5 -5 -5 -5 -5 -6 -6 -6 -6 -6 -6 -6 -6 -7 -7 -7 -7 -7 -7 -7 -7 -7 -7 -7 -7 -7 -7 -7
-3 -3 -4 -4 -4 -4 -4 -4 -4 -4 -5 -5 -5 -5 -5 -5 -5 -6 -6 -6 -6 -6 -6 -6 -6 -7 -7 -7 -7 -7 -7 -7 -7 -7 -7 -7 -7 -7 -7 -7 -8 -8 -8 -8
-3 -4 -4 -4 -4 -4 -5 -5 -5 -5 -5 -5 -5 -5 -6 -6 -6 -6 -6 -6 -6 -6 -7 -7 -7 -7 -7 -7 -7 -7 -7 -7 -7 -7 -7 -8 -8 -8 -8 -8 -8 -8 -8 -8
-4 -4 -4 -4 -4 -5 -5 -5 -5 -5 -5 -5 -5 -6 -6 -6 -6 -6 -6 -7 -7 -7 -7 -7 -7 -7 -7 -8 -7 -7 -8 -8 -8 -8 -8 -8 -8 -8 -8 -8 -8 -8 -8 -8
Wind_Speed
7 7 7 9 10 10 12 11 10 11 12 12 9 8 7 6 5 5 4 4 4 4 4 4 4 4 4 5 4 4 5 5 6 5 5 5 5 5 5 5 5 5 5 5
6 5 7 10 12 13 14 14 15 15 15 10 7 6 7 7 6 6 6 5 5 5 5 5 5 5 5 5 5 5 5 6 5 5 5 5 5 5 5 5 5 5 5 6
4 4 5 9 9 11 9 9 10 12 10 5 6 7 7 7 6 7 7 6 6 6 6 6 6 6 6 6 5 5 6 6 5 5 5 6 5 5 5 5 5 6 6 6
3 2 6 3 0 5 8 8 9 9 9 8 8 8 8 7 7 7 7 7 7 6 6 6 6 5 5 5 5 5 6 6 5 6 6 6 5 6 6 5 5 6 6 7
3 5 8 5 2 2 5 7 6 8 9 8 5 6 6 5 5 6 7 7 7 6 6 5 5 4 4 5 5 5 6 6 6 6 6 5 6 6 5 5 6 6 6 7
4 5 6 2 1 1 3 5 2 5 7 6 4 6 6 4 6 7 7 6 6 5 5 5 4 4 4 5 5 6 6 6 6 6 6 6 6 6 5 6 6 6 7 7
7 7 7 2 1 3 4 3 2 4 6 6 6 7 7 6 7 7 6 6 5 5 4 4 4 4 5 6 6 6 6 6 6 6 6 7 6 6 6 5 6 6 6 7
5 6 7 3 4 5 4 4 4 5 6 7 9 8 8 7 7 6 6 5 4 4 4 4 3 4 5 6 6 6 6 6 6 6 6 5 6 6 6 6 6 6 6 6
8 7 3 5 6 4 3 5 6 7 7 7 8 9 8 7 7 6 6 5 4 4 5 4 4 4 6 6 5 5 6 6 6 6 5 5 5 6 5 5 5 5 5 6
8 10 9 9 8 8 7 8 8 8 8 8 9 9 8 7 6 6 5 5 4 4 5 5 4 5 6 6 5 5 6 6 5 5 5 4 4 4 5 5 5 5 5 6
9 9 9 9 9 9 8 8 8 8 7 8 8 8 7 7 7 6 5 4 4 4 5 6 5 6 5 5 4 5 5 5 5 4 4 4 4 4 5 5 6 6 5 6
9 7 7 7 6 6 7 8 8 7 8 7 7 8 7 7 6 6 5 5 5 5 5 6 5 6 5 4 4 4 4 4 4 3 4 4 4 4 5 6 7 8 8 7
10 7 8 9 8 7 7 8 8 7 8 8 7 7 7 6 6 5 5 5 5 5 5 5 5 6 5 4 4 4 4 4 3 3 3 4 4 4 4 4 5 6 7 8
10 8 9 9 8 7 7 7 7 7 7 7 7 6 6 6 6 6 6 6 5 5 5 5 5 6 5 4 4 4 4 4 4 3 3 4 4 4 4 4 4 4 5 7
10 10 10 8 7 7 6 5 6 7 6 6 5 6 6 6 6 6 6 4 4 4 5 5 5 5 4 4 4 4 4 3 3 3 3 3 3 4 4 4 4 4 4 4
6 7 8 8 9 8 6 6 7 7 7 6 6 6 6 6 6 5 4 3 4 5 5 5 5 5 4 3 4 3 3 4 4 3 3 3 3 3 3 4 4 4 4 4
6 7 7 8 8 8 7 7 7 8 7 7 6 5 4 4 5 5 4 4 5 6 5 5 5 4 3 3 4 3 3 3 3 3 3 3 3 3 3 3 4 4 4 4
9 9 8 8 8 8 8 7 7 7 7 6 5 4 4 5 5 5 4 4 4 5 5 5 4 4 3 3 3 3 2 2 2 3 3 3 3 3 3 4 4 5 4 4
7 7 7 7 7 6 6 6 6 6 5 5 5 5 5 5 5 5 4 3 4 5 4 3 4 3 3 3 3 2 2 2 2 3 3 4 4 3 3 3 4 4 4 3
4 5 5 5 4 4 5 5 5 5 5 4 4 5 5 5 4 4 3 4 4 4 4 4 4 3 3 3 3 2 2 3 3 3 3 3 3 3 3 4 4 4 4 4
4 4 4 4 4 4 4 4 4 4 4 3 4 5 5 4 3 3 3 4 4 3 3 4 3 3 3 3 3 2 2 3 3 3 3 3 3 3 3 4 3 3 3 4
4 4 4 3 3 3 3 3 3 3 3 3 4 4 3 4 3 3 4 4 4 3 3 3 3 3 3 3 2 2 2 3 3 3 3 3 3 3 4 4 4 3 3 3
3 3 3 3 3 3 2 2 3 3 3 3 3 3 4 3 3 3 4 3 3 4 3 3 4 4 4 3 2 2 3 3 3 3 3 3 3 3 4 4 3 3 3 3
3 3 2 2 1 1 2 3 2 2 3 3 3 3 3 3 3 3 3 4 4 4 3 3 4 4 3 2 2 2 2 3 3 3 3 3 3 3 3 3 3 3 3 4
2 2 2 2 2 3 3 2 2 2 2 2 3 3 2 3 3 3 3 3 4 4 3 4 4 3 2 2 2 2 2 3 3 3 3 3 3 3 3 3 3 3 3 3
2 3 3 3 3 2 2 2 2 2 2 2 2 2 2 2 2 2 2 2 3 3 3 2 2 2 2 2 2 2 3 3 3 3 3 3 3 3 3 3 4 3 3 3
2 2 1 2 2 2 2 2 3 3 2 2 2 2 2 2 2 2 2 2 2 2 2 2 2 2 2 2 2 3 3 2 2 3 3 3 3 3 3 3 3 3 3 3
Wind_Direction
271 274 259 258 255 242 233 240 249 261 262 271 280 285 285 283 288 293 293 294 295 292 290 290 288 285 280 274 268 261 255 251 252 256 254 255 256 258 255 253 254 254 254 256
272 266 263 265 257 245 242 245 248 262 269 274 280 279 279 282 280 283 291 285 285 286 285 284 281 280 278 276 270 261 256 255 257 255 251 251 258 256 253 254 255 252 253 255
261 298 284 260 244 231 230 231 236 247 262 274 281 275 281 286 284 283 287 288 282 278 276 278 278 275 274 277 273 260 256 256 252 250 249 252 252 249 251 254 253 251 253 254
270 273 246 252 60 227 234 243 240 258 274 271 276 286 284 281 278 287 289 289 287 282 277 277 276 273 271 272 266 260 260 259 255 253 254 254 250 249 252 252 251 253 255 256
236 258 270 265 236 211 229 256 241 253 270 282 300 302 283 277 282 287 290 290 290 286 279 273 272 274 276 272 268 264 264 263 262 257 254 253 252 253 254 255 254 255 256 257
224 249 256 274 96 197 219 264 237 244 261 276 292 286 290 295 293 292 292 292 291 288 284 271 269 271 266 266 265 263 265 265 263 258 253 252 253 253 253 252 254 256 256 256
229 246 263 275 136 169 226 292 325 267 266 261 262 275 302 299 294 290 291 294 292 286 283 283 281 270 264 264 264 270 270 269 265 259 256 255 256 252 251 250 254 255 258 260
210 230 251 155 160 209 274 319 298 287 279 271 273 286 291 290 290 291 294 295 294 289 289 291 286 279 276 274 278 280 274 270 265 261 258 254 253 251 250 248 250 255 260 265
215 237 282 197 227 258 287 284 286 285 283 280 279 282 286 285 285 286 285 287 290 285 289 291 287 278 277 283 289 281 273 269 267 263 256 253 248 246 246 244 247 253 258 263
253 258 260 254 257 264 268 272 279 284 283 279 276 279 280 279 280 280 280 279 281 279 281 286 287 281 278 283 285 276 271 272 270 264 259 254 249 242 241 241 246 252 258 265
252 267 279 258 248 261 271 277 284 287 283 275 273 275 275 276 277 276 279 277 271 269 274 283 289 287 288 284 279 275 275 273 272 266 263 256 252 250 250 251 250 251 255 258
246 244 243 265 267 261 268 275 277 281 286 282 267 266 270 271 272 273 276 273 269 269 273 282 287 287 291 288 276 273 275 275 270 267 266 263 262 269 257 260 270 266 269 268
250 258 258 273 275 265 269 274 277 275 273 277 275 266 266 270 273 271 272 268 266 269 274 279 283 286 288 285 276 268 272 279 277 270 267 266 265 268 282 280 271 267 268 271
247 257 266 263 266 269 270 275 278 277 273 268 268 267 264 266 268 266 269 268 268 271 275 277 279 283 288 284 275 272 274 274 273 271 270 267 266 268 271 279 288 288 279 276
244 242 252 265 271 271 268 267 271 274 276 273 266 260 259 261 264 269 274 271 271 272 273 275 278 285 291 284 277 275 274 276 277 276 272 272 272 272 271 273 278 288 297 293
253 250 248 251 257 263 266 263 265 271 275 273 269 266 264 265 269 274 272 263 263 269 273 274 278 286 288 281 277 274 271 277 281 278 274 274 274 273 274 276 278 281 284 293
242 252 249 255 258 261 258 257 259 264 266 265 266 269 269 272 276 276 272 267 263 268 273 272 278 286 282 274 272 272 274 276 278 278 275 274 274 275 278 278 277 281 286 289
240 247 247 249 252 256 260 261 258 257 259 264 266 260 255 257 265 273 277 281 277 278 278 277 281 284 279 273 267 269 271 276 277 276 279 278 280 277 278 279 281 286 294 299
244 247 252 253 251 248 254 260 260 259 259 256 252 252 252 255 262 269 275 277 280 287 292 291 288 282 280 279 274 263 269 281 284 282 281 285 287 281 279 281 285 288 294 300
249 251 252 257 254 248 253 261 261 258 256 244 244 252 256 258 259 259 264 267 269 279 293 293 285 279 276 272 272 266 266 272 279 284 285 284 286 287 285 284 285 288 292 295
247 246 247 249 255 256 253 254 250 255 256 236 235 245 254 262 257 250 258 274 280 282 282 278 276 276 274 272 266 263 261 267 271 274 278 283 286 288 289 291 290 290 292 293
245 243 247 249 253 264 268 261 254 255 255 244 242 245 251 261 261 257 249 260 281 290 289 277 276 276 276 275 265 259 260 261 264 268 270 274 278 283 287 292 292 293 292 292
243 243 247 249 253 268 287 274 259 250 249 247 244 244 248 257 257 260 275 274 281 282 282 276 283 282 279 274 265 261 262 262 261 261 264 267 270 275 280 285 289 290 292 293
240 240 247 259 256 256 270 275 264 260 257 258 255 251 251 261 267 258 270 282 287 281 277 283 287 283 282 273 261 261 265 268 268 265 261 262 268 271 275 280 285 289 291 292
234 232 225 217 232 249 262 276 278 272 264 268 273 267 250 250 260 273 276 275 278 281 282 286 288 283 275 265 260 263 267 269 272 270 264 264 268 272 277 280 282 286 289 290
220 228 235 240 251 260 260 253 259 264 262 272 283 279 272 270 270 276 275 279 281 285 287 287 283 279 272 272 274 275 274 277 277 272 268 266 268 272 277 283 287 286 287 289
226 231 239 257 258 247 244 242 248 255 251 255 275 280 274 272 273 280 282 283 284 281 281 283 281 276 277 277 279 280 277 273 269 269 269 266 266 268 274 278 282 285 287 289
Height
1502 1500 1500 1498 1497 1498 1497 1491 1487 1477 1477 1474 1476 1477 1476 1475 1474 1473 1472 1471 1470 1469 1468 1467 1466 1465 1464 1463 1463 1462 1462 1461 1461 1460 1460 1460 1460 1460 1460 1460 1460 1460 1459 1459
1501 1499 1499 1496 1492 1491 1491 1489 1485 1482 1478 1475 1476 1476 1474 1473 1472 1471 1470 1469 1467 1467 1466 1464 1463 1462 1461 1460 1459 1458 1458 1457 1457 1457 1456 1456 1456 1456 1456 1456 1456 1456 1455 1455
1493 1497 1495 1486 1482 1484 1484 1483 1481 1476 1473 1475 1474 1473 1471 1471 1470 1468 1467 1466 1464 1464 1463 1461 1460 1458 1457 1456 1455 1454 1454 1453 1453 1452 1452 1452 1452 1452 1451 1451 1451 1451 1451 1450
1495 1496 1489 1475 1481 1480 1480 1478 1478 1476 1473 1473 1472 1471 1469 1467 1467 1466 1464 1462 1461 1460 1459 1457 1456 1454 1453 1452 1451 1450 1449 1449 1448 1448 1448 1448 1447 1447 1447 1447 1447 1446 1446 1445
1495 1487 1476 1474 1479 1479 1479 1473 1474 1474 1472 1472 1470 1468 1465 1464 1464 1463 1461 1459 1457 1456 1455 1453 1452 1450 1449 1448 1447 1446 1445 1444 1444 1443 1443 1443 1443 1443 1443 1443 1442 1442 1441 1441
1494 1486 1475 1469 1476 1477 1478 1470 1470 1470 1470 1469 1469 1465 1461 1462 1461 1459 1457 1456 1454 1452 1451 1449 1448 1446 1445 1444 1443 1442 1441 1440 1440 1439 1438 1438 1438 1438 1438 1438 1438 1437 1436 1436
1490 1484 1471 1471 1475 1476 1473 1467 1468 1467 1467 1467 1466 1464 1462 1459 1458 1456 1454 1452 1451 1449 1447 1445 1444 1443 1441 1440 1439 1438 1437 1436 1435 1435 1434 1434 1433 1433 1433 1433 1433 1432 1432 1431
1487 1482 1471 1471 1473 1471 1467 1466 1466 1465 1465 1464 1462 1460 1458 1456 1454 1452 1450 1449 1447 1445 1443 1442 1441 1440 1438 1437 1436 1434 1433 1432 1431 1431 1430 1429 1429 1428 1428 1428 1427 1427 1426 1426
1476 1470 1467 1467 1467 1466 1466 1465 1463 1462 1461 1460 1458 1456 1454 1452 1451 1449 1447 1445 1444 1442 1440 1439 1438 1436 1435 1433 1432 1431 1429 1428 1427 1427 1426 1425 1425 1424 1423 1423 1423 1422 1421 1421
1473 1465 1464 1464 1463 1463 1462 1461 1460 1459 1457 1456 1454 1452 1450 1449 1447 1445 1444 1442 1441 1439 1437 1436 1435 1433 1432 1430 1428 1427 1426 1424 1423 1422 1422 1421 1421 1420 1419 1419 1418 1418 1417 1416
1468 1462 1461 1458 1459 1459 1458 1457 1456 1455 1454 1452 1450 1448 1447 1445 1443 1442 1440 1439 1437 1436 1434 1433 1431 1430 1428 1426 1424 1423 1422 1421 1420 1419 1418 1417 1417 1416 1415 1415 1414 1414 1413 1412
1457 1456 1457 1454 1454 1455 1454 1453 1452 1451 1449 1447 1446 1444 1443 1441 1440 1438 1437 1435 1434 1432 1431 1430 1428 1426 1425 1423 1421 1420 1418 1417 1416 1416 1415 1414 1413 1412 1411 1411 1410 1410 1409 1409
1453 1452 1452 1450 1450 1450 1450 1449 1448 1447 1445 1443 1441 1440 1438 1437 1436 1435 1433 1432 1431 1429 1428 1426 1425 1423 1422 1420 1419 1417 1416 1415 1413 1412 1411 1410 1409 1408 1407 1407 1407 1406 1405 1404
1448 1449 1447 1446 1446 1446 1445 1444 1443 1442 1440 1439 1437 1436 1435 1433 1432 1431 1430 1429 1428 1426 1425 1423 1422 1420 1419 1417 1416 1414 1413 1412 1411 1409 1408 1407 1406 1405 1404 1403 1402 1401 1401 1400
1443 1444 1443 1442 1441 1441 1440 1440 1438 1437 1436 1434 1433 1432 1431 1430 1428 1428 1427 1425 1424 1423 1422 1420 1419 1417 1416 1415 1413 1412 1410 1409 1408 1407 1405 1404 1403 1402 1401 1400 1399 1397 1396 1396
1438 1438 1438 1437 1436 1436 1435 1435 1434 1432 1431 1430 1429 1428 1427 1426 1425 1424 1423 1422 1421 1420 1418 1417 1416 1414 1413 1412 1410 1409 1408 1407 1405 1404 1403 1402 1400 1399 1398 1397 1396 1394 1393 1392
1433 1432 1432 1432 1431 1431 1430 1430 1429 1428 1427 1426 1425 1424 1424 1423 1422 1421 1420 1419 1418 1417 1416 1414 1413 1412 1410 1409 1407 1406 1405 1404 1403 1401 1400 1399 1398 1396 1395 1394 1393 1392 1390 1389
1428 1428 1428 1427 1426 1426 1425 1425 1425 1424 1423 1423 1422 1421 1420 1419 1418 1418 1417 1416 1415 1414 1413 1411 1410 1409 1408 1406 1405 1404 1402 1401 1400 1399 1397 1396 1395 1394 1392 1391 1390 1388 1387 1386
1422 1423 1423 1423 1422 1422 1421 1421 1420 1420 1419 1419 1418 1417 1417 1416 1415 1415 1414 1413 1412 1410 1410 1409 1407 1406 1405 1404 1402 1401 1400 1399 1397 1396 1395 1394 1392 1391 1390 1388 1387 1386 1384 1383
1419 1419 1419 1418 1418 1418 1417 1417 1416 1416 1415 1415 1414 1414 1413 1413 1412 1411 1410 1410 1409 1408 1407 1405 1404 1403 1402 1401 1400 1398 1397 1396 1395 1394 1392 1391 1390 1389 1387 1386 1385 1383 1382 1380
1415 1415 1415 1415 1415 1414 1414 1413 1413 1412 1411 1411 1411 1410 1410 1410 1409 1408 1407 1406 1406 1405 1403 1402 1401 1400 1399 1398 1397 1396 1395 1394 1393 1391 1390 1389 1388 1386 1385 1384 1382 1381 1380 1379
1412 1412 1412 1412 1411 1411 1411 1410 1410 1409 1408 1408 1408 1407 1407 1406 1406 1405 1404 1404 1403 1402 1400 1399 1398 1397 1396 1395 1394 1393 1392 1391 1390 1389 1388 1387 1385 1384 1383 1381 1380 1379 1378 1377
1409 1409 1409 1409 1408 1408 1407 1407 1406 1406 1405 1405 1404 1404 1404 1403 1402 1402 1401 1400 1399 1398 1397 1396 1395 1394 1393 1392 1391 1390 1389 1388 1387 1387 1386 1384 1383 1382 1381 1379 1378 1377 1376 1375
1406 1406 1406 1406 1405 1405 1404 1404 1403 1403 1402 1402 1402 1402 1401 1400 1399 1399 1398 1397 1396 1395 1394 1393 1392 1391 1390 1389 1388 1387 1387 1386 1385 1384 1383 1382 1381 1380 1379 1377 1376 1375 1374 1373
1403 1403 1403 1403 1403 1402 1402 1401 1400 1400 1399 1399 1399 1398 1398 1397 1397 1396 1395 1394 1393 1392 1391 1390 1389 1388 1387 1386 1385 1385 1384 1383 1382 1381 1380 1379 1379 1378 1377 1375 1374 1373 1372 1371
1401 1401 1401 1400 1400 1400 1399 1398 1398 1397 1397 1396 1396 1396 1395 1394 1394 1393 1392 1391 1390 1389 1388 1387 1386 1385 1384 1383 1382 1382 1381 1380 1379 1378 1378 1377 1376 1375 1374 1373 1372 1371 1370 1369
1398 1398 1398 1397 1397 1397 1397 1396 1395 1395 1394 1394 1393 1393 1392 1391 1391 1390 1389 1388 1387 1386 1385 1384 1383 1382 1381 1380 1380 1379 1378 1377 1377 1376 1375 1374 1373 1373 1372 1371 1370 1369 1368 1367